Weather History for KDGW - September, 2012

Change the Weather History Date:

Sunday, September 2, 2012

  Actual Average Record
Temperature  
Mean Temperature 75 °F 65 °F  
Max Temperature 88 °F 82 °F 94 °F (2007)
Min Temperature 61 °F 48 °F 35 °F (2006)
Degree Days  
Heating Degree Days 0 3  
Month to date heating degree days 0 6  
Since 1 July heating degree days 7 47  
Cooling Degree Days 10 3  
Month to date cooling degree days 20 6  
Year to date cooling degree days 817 464  
Growing Degree Days 24 (Base 50)    
Moisture  
Dew Point 34 °F    
Average Humidity 31    
Maximum Humidity 52    
Minimum Humidity 9    
Precipitation  
Precipitation 0.00 in 0.04 in 0.71 in (1973)
Month to date precipitation 0.00 0.07  
Year to date precipitation 3.91 10.12  
Sea Level Pressure  
Sea Level Pressure 29.92 in    
Wind  
Wind Speed 11 mph (WNW)    
Max Wind Speed 24 mph    
Max Gust Speed 30 mph    
Visibility 10 miles    
Events      
T = Trace of Precipitation, MM = Missing Value Source: NWS Daily Summary

Daily Weather History Graph

Daily Weather History Graph

Search for Another Location

Airport or City:

Trip Planner

Search our weather history database for the weather conditions in past years. The results will help you decide how hot, cold, wet, or windy it might be!

Date:

Astronomy

Sep. 02, 2012 Rise Set
Actual Time 6:27 AM MDT 7:33 PM MDT
Civil Twilight 5:58 AM MDT 8:02 PM MDT
Nautical Twilight 5:24 AM MDT 8:36 PM MDT
Astronomical Twilight 4:47 AM MDT 9:13 PM MDT
Moon 8:16 PM MDT (9/2) 8:43 AM MDT (9/2)
Length of Visible Light 14h 03m
Length of Day
13h 05m
Waning Gibbous, 95% of the Moon is Illuminated
Sep 2
Waning Gibbous
Sep 8
Last Quarter
Sep 15
New
Sep 22
First Quarter
Sep 29
Full

Hourly Weather History & Observations

Time (MDT) Temp. Dew Point Humidity Pressure Visibility Wind Dir Wind Speed Gust Speed Precip Events Conditions
12:53 AM 70.0 °F 43.0 °F 38% 29.87 in 10.0 mi WSW 5.8 mph - N/A   Clear
1:53 AM 66.0 °F 43.0 °F 43% 29.89 in 10.0 mi NW 4.6 mph - N/A   Clear
2:53 AM 64.0 °F 43.0 °F 46% 29.91 in 10.0 mi WNW 4.6 mph - N/A   Clear
3:53 AM 66.9 °F 45.0 °F 45% 29.89 in 10.0 mi NNW 8.1 mph - N/A   Clear
4:53 AM 68.0 °F 43.0 °F 40% 29.90 in 10.0 mi West 19.6 mph 24.2 mph N/A   Clear
5:53 AM 64.9 °F 44.1 °F 47% 29.93 in 10.0 mi West 17.3 mph - N/A   Clear
6:53 AM 62.1 °F 45.0 °F 53% 29.96 in 10.0 mi West 12.7 mph - N/A   Clear
7:53 AM 64.9 °F 45.0 °F 48% 29.99 in 10.0 mi NW 13.8 mph - N/A   Clear
8:53 AM 69.1 °F 45.0 °F 42% 29.99 in 10.0 mi NW 11.5 mph - N/A   Clear
9:53 AM 73.9 °F 43.0 °F 33% 29.99 in 10.0 mi WNW 17.3 mph - N/A   Clear
10:53 AM 78.1 °F 42.1 °F 28% 29.96 in 10.0 mi WNW 18.4 mph 21.9 mph N/A   Clear
11:53 AM 79.0 °F 39.9 °F 25% 29.94 in 10.0 mi NW 13.8 mph 24.2 mph N/A   Clear
12:53 PM 82.9 °F 35.1 °F 18% 29.92 in 10.0 mi West 15.0 mph 21.9 mph N/A   Clear
1:53 PM 82.9 °F 34.0 °F 17% 29.92 in 10.0 mi NW 8.1 mph 17.3 mph N/A   Clear
2:53 PM 82.9 °F 32.0 °F 16% 29.91 in 10.0 mi Variable 3.5 mph - N/A   Clear
3:53 PM 87.1 °F 23.0 °F 10% 29.89 in 10.0 mi West 17.3 mph 25.3 mph N/A   Clear
4:53 PM 86.0 °F 23.0 °F 10% 29.87 in 10.0 mi West 18.4 mph 28.8 mph N/A   Clear
5:53 PM 84.9 °F 21.0 °F 10% 29.87 in 10.0 mi West 13.8 mph - N/A   Clear
6:53 PM 81.0 °F 21.0 °F 11% 29.88 in 10.0 mi West 15.0 mph - N/A   Clear
7:53 PM 73.0 °F 19.0 °F 13% 29.91 in 10.0 mi West 9.2 mph - N/A   Clear
8:53 PM 72.0 °F 19.9 °F 14% 29.91 in 10.0 mi WSW 10.4 mph - N/A   Clear
9:53 PM 68.0 °F 19.9 °F 16% 29.91 in 10.0 mi Calm Calm - N/A   Clear
10:53 PM 64.0 °F 23.0 °F 21% 29.93 in 10.0 mi West 5.8 mph - N/A   Mostly Cloudy
11:53 PM 64.9 °F 25.0 °F 22% 29.91 in 10.0 mi Calm Calm - N/A   Clear